Time,TemperatureF,DewpointF,PressureIn,WindDirection,WindDirectionDegrees,WindSpeedMPH,WindSpeedGustMPH,Humidity,HourlyPrecipIn,Conditions,Clouds,dailyrainin,SolarRadiationWatts/m^2,SoftwareType,DateUTC
2013-03-02 00:01:00,35.0,8.0,-100.00,NNE,15,0.0,0.0,32,0.00,,,0.00,0.000000,,2013-03-02 08:01:00,
2013-03-02 00:11:00,35.0,8.0,-100.00,NNE,15,0.0,0.0,32,0.00,,,0.00,0.000000,,2013-03-02 08:11:00,
2013-03-02 00:21:00,35.0,8.0,-100.00,NNE,15,0.0,0.0,32,0.00,,,0.00,0.000000,,2013-03-02 08:21:00,
2013-03-02 00:31:00,35.0,8.0,-100.00,NNE,15,0.0,0.0,32,0.00,,,0.00,0.000000,,2013-03-02 08:31:00,
2013-03-02 00:52:00,34.0,10.0,-100.00,North,353,0.0,0.0,36,0.00,,,0.00,0.000000,,2013-03-02 08:52:00,
2013-03-02 01:01:00,34.0,10.0,-100.00,North,353,0.0,0.0,36,0.00,,,0.00,0.000000,,2013-03-02 09:01:00,
2013-03-02 01:11:00,34.0,10.0,-100.00,North,353,0.0,0.0,36,0.00,,,0.00,0.000000,,2013-03-02 09:11:00,
2013-03-02 01:21:00,34.0,10.0,-100.00,North,353,0.0,0.0,36,0.00,,,0.00,0.000000,,2013-03-02 09:21:00,
2013-03-02 01:31:00,34.0,10.0,-100.00,North,353,0.0,0.0,36,0.00,,,0.00,0.000000,,2013-03-02 09:31:00,
2013-03-02 01:52:00,33.0,10.0,-100.00,NNE,12,0.0,0.0,38,0.00,,,0.00,0.000000,,2013-03-02 09:52:00,
2013-03-02 02:01:00,33.0,10.0,-100.00,NNE,12,0.0,0.0,38,0.00,,,0.00,0.000000,,2013-03-02 10:01:00,
2013-03-02 02:15:00,33.0,10.0,-100.00,NNE,12,0.0,0.0,38,0.00,,,0.00,0.000000,,2013-03-02 10:15:00,
2013-03-02 02:21:00,33.0,10.0,-100.00,NNE,12,0.0,0.0,38,0.00,,,0.00,0.000000,,2013-03-02 10:21:00,
2013-03-02 02:31:00,33.0,10.0,-100.00,NNE,12,0.0,0.0,38,0.00,,,0.00,0.000000,,2013-03-02 10:31:00,
2013-03-02 02:52:00,33.0,13.0,-100.00,NE,49,0.0,2.0,43,0.00,,,0.00,0.000000,,2013-03-02 10:52:00,
2013-03-02 03:01:00,33.0,13.0,-100.00,NE,49,0.0,2.0,43,0.00,,,0.00,0.000000,,2013-03-02 11:01:00,
2013-03-02 03:11:00,33.0,13.0,-100.00,NE,49,0.0,2.0,43,0.00,,,0.00,0.000000,,2013-03-02 11:11:00,
2013-03-02 03:21:00,33.0,13.0,-100.00,NE,49,0.0,2.0,43,0.00,,,0.00,0.000000,,2013-03-02 11:21:00,
2013-03-02 03:31:00,33.0,13.0,-100.00,NE,49,0.0,2.0,43,0.00,,,0.00,0.000000,,2013-03-02 11:31:00,
2013-03-02 03:52:00,33.0,11.0,-100.00,North,11,0.0,0.0,39,0.00,,,0.00,0.000000,,2013-03-02 11:52:00,
2013-03-02 04:02:00,33.0,11.0,-100.00,North,11,0.0,0.0,39,0.00,,,0.00,0.000000,,2013-03-02 12:02:00,
2013-03-02 04:11:00,33.0,11.0,-100.00,North,11,0.0,0.0,39,0.00,,,0.00,0.000000,,2013-03-02 12:11:00,
2013-03-02 04:21:00,33.0,11.0,-100.00,North,11,0.0,0.0,39,0.00,,,0.00,0.000000,,2013-03-02 12:21:00,
2013-03-02 04:32:00,33.0,11.0,-100.00,North,11,0.0,0.0,39,0.00,,,0.00,0.000000,,2013-03-02 12:32:00,
2013-03-02 05:01:00,32.0,9.0,-100.00,North,0,0.0,0.0,38,0.00,,,0.00,0.000000,,2013-03-02 13:01:00,
2013-03-02 05:11:00,32.0,9.0,-100.00,North,0,0.0,0.0,38,0.00,,,0.00,0.000000,,2013-03-02 13:11:00,
2013-03-02 05:21:00,32.0,9.0,-100.00,North,0,0.0,0.0,38,0.00,,,0.00,0.000000,,2013-03-02 13:21:00,
2013-03-02 05:31:00,32.0,9.0,-100.00,North,0,0.0,0.0,38,0.00,,,0.00,0.000000,,2013-03-02 13:31:00,
2013-03-02 06:01:00,32.0,10.0,-100.00,North,3,0.0,0.0,39,0.00,,,0.00,0.000000,,2013-03-02 14:01:00,
2013-03-02 06:11:00,32.0,10.0,-100.00,North,3,0.0,0.0,39,0.00,,,0.00,0.000000,,2013-03-02 14:11:00,
2013-03-02 06:21:00,32.0,10.0,-100.00,North,3,0.0,0.0,39,0.00,,,0.00,0.000000,,2013-03-02 14:21:00,
2013-03-02 06:31:00,32.0,10.0,-100.00,North,3,0.0,0.0,39,0.00,,,0.00,0.000000,,2013-03-02 14:31:00,
2013-03-02 06:52:00,32.0,7.0,-100.00,NNW,348,0.0,0.0,34,0.00,,,0.00,2.000000,,2013-03-02 14:52:00,
2013-03-02 07:02:00,32.0,7.0,-100.00,NNW,348,0.0,0.0,34,0.00,,,0.00,2.000000,,2013-03-02 15:02:00,
2013-03-02 07:11:00,32.0,7.0,-100.00,NNW,348,0.0,0.0,34,0.00,,,0.00,2.000000,,2013-03-02 15:11:00,
2013-03-02 07:21:00,32.0,7.0,-100.00,NNW,348,0.0,0.0,34,0.00,,,0.00,2.000000,,2013-03-02 15:21:00,
2013-03-02 07:31:00,32.0,7.0,-100.00,NNW,348,0.0,0.0,34,0.00,,,0.00,2.000000,,2013-03-02 15:31:00,
2013-03-02 08:01:00,39.0,14.0,-100.00,North,354,0.0,0.0,35,0.00,,,0.00,73.000000,,2013-03-02 16:01:00,
2013-03-02 08:11:00,39.0,14.0,-100.00,North,354,0.0,0.0,35,0.00,,,0.00,73.000000,,2013-03-02 16:11:00,
2013-03-02 08:21:00,39.0,14.0,-100.00,North,354,0.0,0.0,35,0.00,,,0.00,73.000000,,2013-03-02 16:21:00,
2013-03-02 08:31:00,39.0,14.0,-100.00,North,354,0.0,0.0,35,0.00,,,0.00,73.000000,,2013-03-02 16:31:00,
2013-03-02 08:52:00,62.0,7.0,-100.00,ENE,64,0.0,0.0,11,0.00,,,0.00,447.000000,,2013-03-02 16:52:00,
2013-03-02 09:01:00,62.0,7.0,-100.00,ENE,64,0.0,0.0,11,0.00,,,0.00,447.000000,,2013-03-02 17:01:00,
2013-03-02 09:52:00,64.0,12.0,-100.00,SSW,209,0.0,6.0,13,-99.99,,,0.00,716.000000,,2013-03-02 17:52:00,
2013-03-02 10:01:00,64.0,12.0,-100.00,SSW,209,0.0,6.0,13,-99.99,,,0.00,716.000000,,2013-03-02 18:01:00,
2013-03-02 10:52:00,69.0,10.0,-100.00,South,188,0.0,6.0,10,-99.99,,,0.00,915.000000,,2013-03-02 18:52:00,
2013-03-02 11:01:00,69.0,10.0,-100.00,South,188,0.0,6.0,10,-99.99,,,0.00,915.000000,,2013-03-02 19:01:00,
2013-03-02 12:01:00,68.0,15.0,-100.00,NNW,337,2.0,8.0,13,-99.99,,,0.00,1033.000000,,2013-03-02 20:01:00,
2013-03-02 13:02:00,66.0,12.0,-100.00,South,176,3.0,12.0,12,-99.99,,,0.00,1036.000000,,2013-03-02 21:02:00,
2013-03-02 13:52:00,66.0,12.0,-100.00,SSW,202,4.0,8.0,12,-99.99,,,0.00,1031.000000,,2013-03-02 21:52:00,
2013-03-02 14:01:00,66.0,12.0,-100.00,SSW,202,4.0,8.0,12,-99.99,,,0.00,1031.000000,,2013-03-02 22:01:00,
2013-03-02 14:52:00,64.0,15.0,-100.00,SE,141,1.0,9.0,15,-99.99,,,0.00,802.000000,,2013-03-02 22:52:00,
2013-03-02 15:01:00,64.0,15.0,-100.00,SE,141,1.0,9.0,15,-99.99,,,0.00,802.000000,,2013-03-02 23:01:00,
2013-03-02 15:52:00,60.0,18.0,-100.00,SSW,193,2.0,8.0,19,-99.99,,,0.00,489.000000,,2013-03-02 23:52:00,
2013-03-02 16:02:00,60.0,18.0,-100.00,SSW,193,2.0,8.0,19,-99.99,,,0.00,489.000000,,2013-03-03 00:02:00,
2013-03-02 16:11:00,60.0,18.0,-100.00,SSW,193,2.0,8.0,19,-99.99,,,0.00,489.000000,,2013-03-03 00:11:00,
2013-03-02 16:22:00,60.0,18.0,-100.00,SSW,193,2.0,8.0,19,-99.99,,,0.00,489.000000,,2013-03-03 00:22:00,
2013-03-02 16:31:00,60.0,18.0,-100.00,SSW,193,2.0,8.0,19,-99.99,,,0.00,489.000000,,2013-03-03 00:31:00,
2013-03-02 17:01:00,54.0,15.0,-100.00,SE,136,0.0,7.0,21,0.00,,,0.00,229.000000,,2013-03-03 01:01:00,
2013-03-02 17:11:00,54.0,15.0,-100.00,SE,136,0.0,7.0,21,0.00,,,0.00,229.000000,,2013-03-03 01:11:00,
2013-03-02 17:21:00,54.0,15.0,-100.00,SE,136,0.0,7.0,21,0.00,,,0.00,229.000000,,2013-03-03 01:21:00,
2013-03-02 17:31:00,54.0,15.0,-100.00,SE,136,0.0,7.0,21,0.00,,,0.00,229.000000,,2013-03-03 01:31:00,
2013-03-02 18:01:00,50.0,13.0,-100.00,SSE,157,0.0,5.0,22,0.00,,,0.00,72.000000,,2013-03-03 02:01:00,
2013-03-02 18:11:00,50.0,13.0,-100.00,SSE,157,0.0,5.0,22,0.00,,,0.00,72.000000,,2013-03-03 02:11:00,
2013-03-02 18:21:00,50.0,13.0,-100.00,SSE,157,0.0,5.0,22,0.00,,,0.00,72.000000,,2013-03-03 02:21:00,
2013-03-02 18:31:00,50.0,13.0,-100.00,SSE,157,0.0,5.0,22,0.00,,,0.00,72.000000,,2013-03-03 02:31:00,
2013-03-02 18:52:00,44.0,14.0,-100.00,SSE,155,0.0,7.0,29,0.00,,,0.00,5.000000,,2013-03-03 02:52:00,
2013-03-02 19:01:00,44.0,14.0,-100.00,SSE,155,0.0,7.0,29,0.00,,,0.00,5.000000,,2013-03-03 03:01:00,
2013-03-02 19:11:00,44.0,14.0,-100.00,SSE,155,0.0,7.0,29,0.00,,,0.00,5.000000,,2013-03-03 03:11:00,
2013-03-02 19:21:00,44.0,14.0,-100.00,SSE,155,0.0,7.0,29,0.00,,,0.00,5.000000,,2013-03-03 03:21:00,
2013-03-02 19:31:00,44.0,14.0,-100.00,SSE,155,0.0,7.0,29,0.00,,,0.00,5.000000,,2013-03-03 03:31:00,
2013-03-02 19:52:00,43.0,16.0,-100.00,SSE,163,0.0,5.0,33,0.00,,,0.00,0.000000,,2013-03-03 03:52:00,
2013-03-02 20:01:00,43.0,16.0,-100.00,SSE,163,0.0,5.0,33,0.00,,,0.00,0.000000,,2013-03-03 04:01:00,
2013-03-02 20:11:00,43.0,16.0,-100.00,SSE,163,0.0,5.0,33,0.00,,,0.00,0.000000,,2013-03-03 04:11:00,
2013-03-02 20:21:00,43.0,16.0,-100.00,SSE,163,0.0,5.0,33,0.00,,,0.00,0.000000,,2013-03-03 04:21:00,
2013-03-02 20:31:00,43.0,16.0,-100.00,SSE,163,0.0,5.0,33,0.00,,,0.00,0.000000,,2013-03-03 04:31:00,
2013-03-02 21:01:00,42.0,16.0,-100.00,SE,144,0.0,7.0,35,0.00,,,0.00,0.000000,,2013-03-03 05:01:00,
2013-03-02 21:11:00,42.0,16.0,-100.00,SE,144,0.0,7.0,35,0.00,,,0.00,0.000000,,2013-03-03 05:11:00,
2013-03-02 21:22:00,42.0,16.0,-100.00,SE,144,0.0,7.0,35,0.00,,,0.00,0.000000,,2013-03-03 05:22:00,
2013-03-02 21:32:00,42.0,16.0,-100.00,SE,144,0.0,7.0,35,0.00,,,0.00,0.000000,,2013-03-03 05:32:00,
2013-03-02 22:01:00,41.0,16.0,-100.00,SSE,160,0.0,8.0,36,0.00,,,0.00,0.000000,,2013-03-03 06:01:00,
2013-03-02 22:11:00,41.0,16.0,-100.00,SSE,160,0.0,8.0,36,0.00,,,0.00,0.000000,,2013-03-03 06:11:00,
2013-03-02 22:21:00,41.0,16.0,-100.00,SSE,160,0.0,8.0,36,0.00,,,0.00,0.000000,,2013-03-03 06:21:00,
2013-03-02 22:31:00,41.0,16.0,-100.00,SSE,160,0.0,8.0,36,0.00,,,0.00,0.000000,,2013-03-03 06:31:00,
2013-03-02 22:52:00,41.0,10.0,-100.00,South,172,0.0,9.0,27,0.00,,,0.00,0.000000,,2013-03-03 06:52:00,
2013-03-02 23:01:00,41.0,10.0,-100.00,South,172,0.0,9.0,27,0.00,,,0.00,0.000000,,2013-03-03 07:01:00,
2013-03-02 23:11:00,41.0,10.0,-100.00,South,172,0.0,9.0,27,0.00,,,0.00,0.000000,,2013-03-03 07:11:00,
2013-03-02 23:21:00,41.0,10.0,-100.00,South,172,0.0,9.0,27,0.00,,,0.00,0.000000,,2013-03-03 07:21:00,
2013-03-02 23:31:00,41.0,10.0,-100.00,South,172,0.0,9.0,27,0.00,,,0.00,0.000000,,2013-03-03 07:31:00,
2013-03-02 23:52:00,36.0,8.0,-100.00,North,0,0.0,2.0,30,0.00,,,0.00,0.000000,,2013-03-03 07:52:00,